星链-34915 (STARLINK-34915)

导读

STARLINK-34915是美国太空探索技术公司(SpaceX)于2025年8月14日发射的星链(Starlink)低轨互联网卫星,隶属于星链巨型星座项目。该卫星运行在近地轨道,近地点约477公里,远地点约478公里,轨道倾角53.157°,运行周期约94分钟,目前仍在正常工作,为全球尤其是偏远地区提供高速低延迟宽带互联网服务。

Basic Information
目录编号:
65187
目录名称:
STARLINK-34915
国际标识:
2025-175P
轨道中心:
EARTH
卫星名称:
星链-34915
卫星全名:
星链-34915 (STARLINK-34915)
卫星状态:
在轨 (已飞行386 天)
发射日期:
2025-08-14 UTC
国别 :
美国 (US)
星等 :
--
Orbit Information
数据来源 国际轨道数据
星历时间: 2026-09-03T22:54:30+0800
14小时前
查看轨道信息
半长轴: 6843.674km
偏心率: 0.0001543
轨道倾角: 97.284°
近地点辐角 86.234°
升交点赤经 115.806°
平近点角 273.908°
近地点: 464.481km
远地点: 466.593km
周期: 93.906分钟
每日圈数: 15.334473
Detailed Information
固有亮度:
5
最大亮度:
2.5
卫星平台:
Starlink V1.0
覆盖范围:
全球
运营商:
太空探索技术公司
运营商所在国:
美国
制造商(研发单位):
太空探索技术公司
制造商所在国:
美国
使用方式:
暂无
Satellite Introduction
Starlink 计划是 SpaceX 推出的全球卫星互联网项目,通过发射低轨道卫星,为全球尤其是偏远地区提供高速、低延迟的互联网服务。自 2019 年起,Starlink 已部署数千颗卫星,旨在缩小全球数字鸿沟,推动互联网普及。该项目还为军事、航空等行业提供通信支持,带来广泛经济效益。
2D Orbit Map
3D Orbit Map
Orbit Altitude Analysis Chart
Orbit Inclination Analysis Chart
Orbit Comprehensive Analysis Chart
View Comprehensive Chart
Conjunction Data List
Event ID Objects TCA Miss Dist (km) Collision Risk Probability Collision Risk Index (CRI) Action
CDM_260903-062405-740806-518722
2026-09-03T
06:24:47+0000
1.307 km
极远距离
1.026771E-5 中风险 0.55
CDM_260904-120605-198806-518721
2026-09-04T
12:06:53+0000
2.301 km
极远距离
2.055687E-6 低风险 0.41
CDM_260903-203706-426306-518721
2026-09-03T
20:37:15+0000
2.377 km
极远距离
1.735635E-6 低风险 0.4
CDM_260904-212104-704106-518721
2026-09-04T
21:21:08+0000
2.905 km
极远距离
1.410829E-6 低风险 0.38
CDM_260904-060004-860206-518721
2026-09-04T
06:00:54+0000
2.863 km
极远距离
1.302179E-6 低风险 0.37
CDM_260904-011804-858306-518721
2026-09-04T
01:18:40+0000
2.658 km
极远距离
1.276549E-6 低风险 0.37
CDM_260903-032305-301206-518722
2026-09-03T
03:23:42+0000
2.990 km
极远距离
1.196172E-6 低风险 0.37
CDM_260904-090605-266006-518721
2026-09-04T
09:06:52+0000
2.800 km
极远距离
1.068792E-6 低风险 0.36